Location: Champs
(48.8539°N, 2.6040°E)
Time: 11:03:53
(UTC+00:00)

Cosmos 1900 - Pass Details

Date: 26 October 2021
Orbit: 689 x 733 km, 66.1° (Epoch: 06 December)

Event Time Altitude Azimuth Distance (km) Brightness Sun altitude
Exits shadow 04:30:04 20° 207° (SSW) 1,558 5.8 -19.8°
Maximum altitude 04:33:23 76° 124° (SE) 714 4.4 -19.3°
Drops below altitude 10° 04:38:16 10° 39° (NE) 2,152 7.4 -18.5°
Sets 04:40:37 0° 38° (NE) 3,076 8.2 -18.1°
